Location: Lansingburgh
(42.7845°N, 73.6696°W)
Time: 18:05:45
(UTC+00:00)

CZ-4 R/B - Pass Details

Date: 24 January 2020
Orbit: 533 x 597 km, 97.7° (Epoch: 27 February)

Event Time Altitude Azimuth Distance (km) Brightness Sun altitude
Rises 23:47:47 0° 186° (S) 2,748 5.1 -20.3°
Reaches altitude 10° 23:50:01 10° 195° (SSW) 1,867 4.3 -20.7°
Maximum altitude 23:53:46 36° 263° (W) 923 3.0 -21.3°
Drops below altitude 10° 23:57:37 10° 330° (NNW) 1,915 4.3 -22.0°
Sets 23:59:57 0° 339° (NNW) 2,829 5.1 -22.5°
